When you browse on this site, cookies collect data to enhance your experience and personalize the content and advertising you see.
Visit our Privacy Policy to learn more. By continuing to use the site, you agree to this use of cookies and data.
  • In Lithuania
  • List of Countries
  • For 7 days
  • Water Temperature
  • Satellite Maps
  • Weather Map
  • Weather Widgets
  • user-avatar
    Login

    Hourly Weather Klagenfurt

    Today, 20 March, Wednesday

    Time Temperature Precipitation Wind Pressure Humidity
    00:00 -1°C° 0 mm 1 mps 696 mmHg 83%
    01:00 -2°C° 0 mm 1 mps 696 mmHg 83%
    02:00 -2°C° 0 mm 1 mps 696 mmHg 83%
    03:00 -2°C° 0 mm 1 mps 696 mmHg 82%
    04:00 -4°C° 0 mm 2 mps 696 mmHg 81%
    05:00 -4°C° 0 mm 2 mps 697 mmHg 79%
    06:00 -4°C° 0 mm 2 mps 697 mmHg 77%
    07:00 -3°C° 0 mm 2 mps 698 mmHg 75%
    08:00 -1°C° 0 mm 2 mps 698 mmHg 67%
    09:00 +2°C° 0 mm 2 mps 698 mmHg 59%
    10:00 +4°C° 0 mm 2 mps 699 mmHg 52%
    11:00 +5°C° 0 mm 2 mps 699 mmHg 49%
    12:00 +6°C° 0 mm 2 mps 699 mmHg 46%
    13:00 +7°C° 0 mm 2 mps 699 mmHg 44%
    14:00 +7°C° 0 mm 2 mps 699 mmHg 45%
    15:00 +7°C° 0 mm 2 mps 699 mmHg 46%
    16:00 +7°C° 0 mm 2 mps 699 mmHg 47%
    17:00 +5°C° 0 mm 2 mps 698 mmHg 55%
    18:00 +4°C° 0 mm 1 mps 698 mmHg 63%
    19:00 +2°C° 0 mm 1 mps 698 mmHg 71%
    20:00 +1°C° 0 mm 1 mps 699 mmHg 73%
    21:00 0°C° 0 mm 1 mps 699 mmHg 75%
    22:00 0°C° 0 mm 1 mps 699 mmHg 77%
    23:00 0°C° 0 mm 1 mps 700 mmHg 78%

    Tomorrow, 21 March, Thursday

    Time Temperature Precipitation Wind Pressure Humidity
    00:00 -1°C° 0 mm 1 mps 700 mmHg 79%
    01:00 -1°C° 0 mm 1 mps 700 mmHg 80%
    02:00 -1°C° 0 mm 1 mps 700 mmHg 80%
    03:00 -1°C° 0 mm 1 mps 699 mmHg 81%
    04:00 -1°C° 0 mm 1 mps 699 mmHg 82%
    05:00 -1°C° 0 mm 1 mps 699 mmHg 80%
    06:00 0°C° 0 mm 1 mps 699 mmHg 77%
    07:00 0°C° 0 mm 1 mps 700 mmHg 75%
    08:00 +2°C° 0 mm 1 mps 700 mmHg 67%
    09:00 +5°C° 0 mm 1 mps 700 mmHg 58%
    10:00 +7°C° 0 mm 1 mps 701 mmHg 50%
    11:00 +8°C° 0 mm 1 mps 700 mmHg 47%
    12:00 +9°C° 0 mm 2 mps 700 mmHg 44%
    13:00 +10°C° 0 mm 2 mps 700 mmHg 41%
    14:00 +11°C° 0 mm 1 mps 700 mmHg 43%
    15:00 +10°C° 0 mm 1 mps 699 mmHg 44%
    16:00 +10°C° 0 mm 1 mps 699 mmHg 45%
    17:00 +8°C° 0 mm 1 mps 699 mmHg 54%
    18:00 +6°C° 0 mm 1 mps 699 mmHg 63%
    19:00 +3°C° 0 mm 1 mps 698 mmHg 72%
    20:00 +3°C° 0 mm 1 mps 699 mmHg 74%
    21:00 +2°C° 0 mm 1 mps 699 mmHg 76%
    22:00 +1°C° 0 mm 1 mps 699 mmHg 78%
    23:00 +1°C° 0 mm 1 mps 699 mmHg 78%

    Day after tomorrow, 22 March, Friday

    Time Temperature Precipitation Wind Pressure Humidity
    00:00 +1°C° 0 mm 1 mps 699 mmHg 78%
    01:00 0°C° 0 mm 0 mps 699 mmHg 78%
    02:00 +1°C° 0 mm 1 mps 698 mmHg 77%
    03:00 +1°C° 0 mm 1 mps 698 mmHg 76%
    04:00 +1°C° 0 mm 1 mps 698 mmHg 76%
    05:00 +1°C° 0 mm 1 mps 698 mmHg 73%
    06:00 +2°C° 0 mm 1 mps 698 mmHg 70%
    07:00 +2°C° 0 mm 1 mps 698 mmHg 67%
    08:00 +5°C° 0 mm 1 mps 698 mmHg 59%
    09:00 +7°C° 0 mm 1 mps 699 mmHg 51%
    10:00 +10°C° 0 mm 1 mps 699 mmHg 42%
    11:00 +11°C° 0 mm 1 mps 699 mmHg 40%
    12:00 +12°C° 0 mm 1 mps 699 mmHg 39%
    13:00 +13°C° 0 mm 1 mps 698 mmHg 37%
    14:00 +13°C° 0 mm 1 mps 698 mmHg 39%
    15:00 +13°C° 0 mm 1 mps 698 mmHg 41%
    16:00 +13°C° 0 mm 1 mps 697 mmHg 44%
    17:00 +10°C° 0 mm 1 mps 697 mmHg 53%
    18:00 +8°C° 0 mm 1 mps 697 mmHg 62%
    19:00 +4°C° 0 mm 0 mps 696 mmHg 71%
    20:00 +4°C° 0 mm 0 mps 696 mmHg 72%
    21:00 +3°C° 0 mm 0 mps 697 mmHg 73%
    22:00 +3°C° 0 mm 0 mps 697 mmHg 74%
    23:00 +2°C° 0 mm 0 mps 696 mmHg 74%

    23 March, Saturday

    Time Temperature Precipitation Wind Pressure Humidity
    00:00 +2°C° 0 mm 0 mps 696 mmHg 74%
    01:00 +3°C° 0 mm 1 mps 696 mmHg 74%
    02:00 +3°C° 0 mm 1 mps 696 mmHg 73%
    03:00 +3°C° 0 mm 1 mps 696 mmHg 73%
    04:00 +3°C° 0 mm 1 mps 696 mmHg 72%
    05:00 +3°C° 0 mm 1 mps 696 mmHg 70%
    06:00 +3°C° 0 mm 1 mps 696 mmHg 68%
    07:00 +4°C° 0 mm 1 mps 696 mmHg 66%
    08:00 +7°C° 0 mm 1 mps 696 mmHg 57%
    09:00 +10°C° 0 mm 1 mps 697 mmHg 49%
    10:00 +13°C° 0 mm 1 mps 697 mmHg 41%
    11:00 +14°C° 0 mm 1 mps 697 mmHg 39%
    12:00 +16°C° 0 mm 1 mps 697 mmHg 36%
    13:00 +18°C° 0 mm 1 mps 697 mmHg 34%
    14:00 +16°C° 0 mm 1 mps 697 mmHg 36%
    15:00 +16°C° 0 mm 1 mps 696 mmHg 38%
    16:00 +15°C° 0 mm 1 mps 696 mmHg 40%
    17:00 +13°C° 0 mm 1 mps 695 mmHg 49%
    18:00 +10°C° 0 mm 1 mps 695 mmHg 59%
    19:00 +7°C° 0 mm 0 mps 695 mmHg 68%
    20:00 +6°C° 0 mm 0 mps 695 mmHg 70%
    21:00 +6°C° 0 mm 0 mps 695 mmHg 72%
    22:00 +5°C° 0 mm 0 mps 695 mmHg 73%
    23:00 +5°C° 0 mm 0 mps 695 mmHg 74%

    24 March, Sunday

    Time Temperature Precipitation Wind Pressure Humidity
    00:00 +5°C° 0 mm 0 mps 695 mmHg 76%
    01:00 +4°C° 0 mm 0 mps 694 mmHg 77%
    02:00 +4°C° 0 mm 0 mps 694 mmHg 78%
    03:00 +5°C° 0 mm 1 mps 694 mmHg 78%
    04:00 +4°C° 0 mm 1 mps 693 mmHg 79%
    05:00 +5°C° 0 mm 1 mps 694 mmHg 78%
    06:00 +5°C° 0 mm 1 mps 694 mmHg 77%
    07:00 +5°C° 0 mm 1 mps 694 mmHg 76%
    08:00 +8°C° 0 mm 1 mps 694 mmHg 66%
    09:00 +10°C° 0 mm 0 mps 695 mmHg 56%
    10:00 +13°C° 0 mm 0 mps 695 mmHg 46%
    11:00 +15°C° 0 mm 0 mps 695 mmHg 43%
    12:00 +18°C° 0 mm 1 mps 695 mmHg 40%
    13:00 +19°C° 0 mm 1 mps 694 mmHg 37%
    14:00 +18°C° 0 mm 1 mps 694 mmHg 38%
    15:00 +18°C° 0 mm 1 mps 694 mmHg 39%
    16:00 +16°C° 0 mm 1 mps 693 mmHg 40%
    17:00 +14°C° 0 mm 1 mps 693 mmHg 48%
    18:00 +11°C° 0 mm 0 mps 693 mmHg 56%
    19:00 +9°C° 0 mm 0 mps 692 mmHg 64%
    20:00 +8°C° 0 mm 0 mps 693 mmHg 67%
    21:00 +9°C° 0 mm 1 mps 693 mmHg 69%
    22:00 +8°C° 0 mm 1 mps 693 mmHg 71%
    23:00 +8°C° 0 mm 1 mps 693 mmHg 73%

    25 March, Monday

    Time Temperature Precipitation Wind Pressure Humidity
    00:00 +8°C° 0 mm 1 mps 693 mmHg 75%
    01:00 +8°C° 0 mm 1 mps 693 mmHg 77%
    02:00 +7°C° 0 mm 1 mps 692 mmHg 78%
    03:00 +7°C° 0 mm 1 mps 692 mmHg 80%
    04:00 +7°C° 0 mm 1 mps 692 mmHg 81%
    05:00 +7°C° 0 mm 1 mps 692 mmHg 81%
    06:00 +7°C° 0 mm 1 mps 692 mmHg 80%
    07:00 +7°C° 0 mm 1 mps 692 mmHg 80%
    08:00 +9°C° 0 mm 1 mps 692 mmHg 71%
    09:00 +11°C° 0 mm 0 mps 693 mmHg 62%
    10:00 +13°C° 0 mm 0 mps 693 mmHg 52%
    11:00 +14°C° 0 mm 0 mps 692 mmHg 50%
    12:00 +15°C° 0 mm 0 mps 692 mmHg 47%
    13:00 +16°C° 0 mm 0 mps 692 mmHg 45%
    14:00 +14°C° 0.1 mm 0 mps 691 mmHg 49%
    15:00 +13°C° 0.1 mm 0 mps 690 mmHg 53%
    16:00 +12°C° 0.1 mm 0 mps 689 mmHg 57%
    17:00 +11°C° 0.2 mm 0 mps 689 mmHg 62%
    18:00 +11°C° 0.2 mm 1 mps 689 mmHg 66%
    19:00 +10°C° 0.2 mm 1 mps 689 mmHg 71%
    20:00 +9°C° 0.3 mm 1 mps 689 mmHg 73%
    21:00 +8°C° 0.3 mm 1 mps 689 mmHg 74%
    22:00 +8°C° 0.3 mm 1 mps 689 mmHg 76%
    23:00 +7°C° 0.2 mm 1 mps 689 mmHg 77%
    Show more